Weather Roundup
Issued by NWS Springfield, MO

Home | Current Version | Previous Version | Text Only | Print | Product List | Glossary On
Versions: 1 2 3 4 5 6 7 8 9 10 11 12 13 14 15 16 17 18 19 20 21 22 23 24 25 26 27 28 29 30 31 32 33 34 35 36 37 38 39 40 41 42 43 44 45 46 47 48 49 50
000
NZUS99 KSGF 300557
HRRSGF

HOURLY WEATHER
NATIONAL WEATHER SERVICE SPRINGFIELD MO
100 AM CDT TUE AUG 30 2016

......SGF CWA......

CITY           SKY/WX    TMP DP  RH WIND       PRES   REMARKS
SPRINGFIELD    CLOUDY    76  70  82 CALM      30.16S
6HR MIN TEMP:  75; 6HR MAX TEMP:  83;

JOPLIN         CLOUDY    72  70  93 CALM      30.15S
6HR MIN TEMP:  72; 6HR MAX TEMP:  86;

WEST PLAINS    CLEAR     73  69  87 CALM      30.18S
6HR MIN TEMP:  72; 6HR MAX TEMP:  84;

ROLLA          CLEAR     73  70  90 E3        30.16S
6HR MIN TEMP:  71; 6HR MAX TEMP:  84;


......SURROUNDING SGF CWA......

CITY           SKY/WX    TMP DP  RH WIND       PRES   REMARKS
CHANUTE        CLOUDY    75  72  90 CALM      30.14F
PARSONS        MOCLDY    72  70  93 CALM      30.15S
COFFEYVILLE    PTCLDY    73  71  93 NW3       30.13F
EMPORIA        CLOUDY    73  70  90 CALM      30.15F
HARRISON AR    PTCLDY    72  69  90 W3        30.17S

......KANSAS AND MISSOURI......

CITY           SKY/WX    TMP DP  RH WIND       PRES   REMARKS
KANSAS CTY INT CLOUDY    74  70  87 NE8       30.15F
SEDALIA        CLEAR     76  73  91 NE3       30.16S
ST JOSEPH      TSTM      72  69  90 NE5       30.19R
ST LOUIS       CLEAR     81  73  76 SE3       30.15S
WICHITA        CLOUDY    74  68  81 CALM      30.15S
TOPEKA         PTCLDY    75  72  90 CALM      30.14F
OLATHE         CLOUDY    74  67  78 SE7       30.16R

......TENNESSEE......

CITY           SKY/WX    TMP DP  RH WIND       PRES   REMARKS
MEMPHIS        NOT AVBL
NASHVILLE      CLEAR     78  72  81 N6        30.10F

......ARKANSAS.......

CITY           SKY/WX    TMP DP  RH WIND       PRES   REMARKS
FAYETTEVILLE   CLOUDY    73  72  96 CALM      30.15S
FT SMITH       PTCLDY    75  70  84 CALM      30.10R
LITTLE ROCK    CLEAR     81  73  76 N3        30.06S

......OKLAHOMA.......

CITY           SKY/WX    TMP DP  RH WIND       PRES   REMARKS
TULSA          CLOUDY    74  71  91 NW5       30.11S
PONCA CITY     PTCLDY    76  70  82 CALM      30.12F
MCALESTER      CLOUDY    77  69  76 E6        30.10S
OKLAHOMA CITY  CLOUDY    77  71  82 NE8       30.12F

......IOWA............

CITY           SKY/WX    TMP DP  RH WIND       PRES   REMARKS
DES MOINES     NOT AVBL
QUAD CITIES    FAIR      73  69  87 CALM      30.17S

......ILLINOIS........

CITY           SKY/WX    TMP DP  RH WIND       PRES   REMARKS
QUINCY         NOT AVBL
CHICAGO        MOCLDY    73  72  96 CALM      30.18R FOG




USA.gov is the U.S. government's official web portal to all federal, state and local government web resources and services.